Location: Newark
(34.4697°S, 57.8467°W)
Time: 20:14:37
(UTC+00:00)

N. Korean satellite - Pass Details

Date: 25 July 2019
Orbit: 457 x 507 km, 97.2° (Epoch: 18 August)

Event Time Altitude Azimuth Distance (km) Brightness Sun altitude
Rises 09:00:57 0° 17° (NNE) 2,585 10.6 -22.4°
Reaches altitude 10° 09:03:02 10° 19° (NNE) 1,704 9.7 -22.0°
Maximum altitude 09:06:41 71° 103° (ESE) 533 6.8 -21.3°
Enters shadow 09:08:22 30° 180° (S) 914 7.8 -20.9°
